�������l�o���
Date,Time,MP-1(��Sv/h),MP-2(��Sv/h),MP-3(��Sv/h),MP-4(��Sv/h),MP-5(��Sv/h),MP-6(��Sv/h),MP-7(��Sv/h),MP-8(��Sv/h),����,����(m/s),���J
2019/12/30,00:00,0.700,1.006,0.678,1.265,0.888,0.402,0.706,0.674,�k��,1.5,��
2019/12/30,00:10,0.698,1.006,0.678,1.263,0.884,0.401,0.705,0.672,�k��,1.4,��
2019/12/30,00:20,0.698,1.006,0.678,1.263,0.888,0.401,0.706,0.672,�k��,1.0,��
2019/12/30,00:30,0.699,1.008,0.678,1.264,0.885,0.402,0.706,0.672,�k�k��,0.9,��
2019/12/30,00:40,0.698,1.007,0.678,1.263,0.885,0.400,0.704,0.672,�k��,1.0,��
2019/12/30,00:50,0.697,1.006,0.678,1.265,0.885,0.401,0.704,0.672,��,0.6,��
2019/12/30,01:00,0.698,1.008,0.677,1.264,0.885,0.402,0.707,0.672,���k��,1.1,��
2019/12/30,01:10,0.700,1.008,0.677,1.264,0.885,0.402,0.705,0.671,�k��,0.9,��
2019/12/30,01:20,0.697,1.005,0.678,1.266,0.885,0.401,0.705,0.671,�k��,1.3,��
2019/12/30,01:30,0.698,1.005,0.676,1.264,0.884,0.401,0.707,0.671,-,CALM,��
2019/12/30,01:40,0.698,1.007,0.678,1.266,0.886,0.402,0.707,0.672,�k�k��,0.5,��
2019/12/30,01:50,0.698,1.005,0.676,1.263,0.886,0.400,0.705,0.672,�k�k��,0.8,��
2019/12/30,02:00,0.698,1.006,0.677,1.264,0.884,0.401,0.705,0.671,���k��,0.9,��
2019/12/30,02:10,0.697,1.003,0.677,1.266,0.887,0.401,0.704,0.671,��,0.6,��
2019/12/30,02:20,0.697,1.007,0.677,1.263,0.882,0.401,0.705,0.671,��,0.7,��
2019/12/30,02:30,0.699,1.008,0.676,1.266,0.883,0.401,0.705,0.673,���쐼,0.7,��
2019/12/30,02:40,0.697,1.007,0.678,1.263,0.885,0.400,0.705,0.672,-,CALM,��
2019/12/30,02:50,0.700,1.006,0.676,1.263,0.884,0.401,0.706,0.673,-,CALM,��
2019/12/30,03:00,0.701,1.007,0.676,1.266,0.884,0.400,0.705,0.674,�k�k��,0.6,��
2019/12/30,03:10,0.698,1.006,0.677,1.266,0.888,0.401,0.706,0.673,���k��,0.6,��
2019/12/30,03:20,0.699,1.006,0.676,1.264,0.886,0.401,0.705,0.671,-,CALM,��
2019/12/30,03:30,0.699,1.007,0.675,1.265,0.884,0.400,0.706,0.671,-,CALM,��
2019/12/30,03:40,0.700,1.005,0.676,1.265,0.885,0.401,0.707,0.674,-,CALM,��
2019/12/30,03:50,0.700,1.008,0.676,1.264,0.885,0.401,0.704,0.671,-,CALM,��
2019/12/30,04:00,0.700,1.005,0.677,1.265,0.881,0.402,0.705,0.671,-,CALM,��
2019/12/30,04:10,0.699,1.007,0.676,1.265,0.883,0.402,0.705,0.670,�k�k��,0.6,��
2019/12/30,04:20,0.699,1.007,0.678,1.263,0.885,0.400,0.705,0.671,-,CALM,��
2019/12/30,04:30,0.699,1.006,0.676,1.260,0.883,0.402,0.705,0.672,��,0.5,��
2019/12/30,04:40,0.696,1.006,0.677,1.263,0.884,0.401,0.706,0.672,���쐼,0.5,��
2019/12/30,04:50,0.697,1.005,0.677,1.262,0.884,0.401,0.707,0.672,-,CALM,��
2019/12/30,05:00,0.700,1.005,0.677,1.264,0.885,0.402,0.705,0.673,-,CALM,��
2019/12/30,05:10,0.698,1.004,0.676,1.263,0.883,0.401,0.705,0.671,��쐼,0.6,��
2019/12/30,05:20,0.697,1.005,0.677,1.263,0.883,0.401,0.705,0.671,�쐼,0.5,��
2019/12/30,05:30,0.698,1.007,0.677,1.264,0.884,0.399,0.706,0.671,��,1.0,��
2019/12/30,05:40,0.697,1.006,0.677,1.265,0.882,0.399,0.705,0.671,��,1.5,��
2019/12/30,05:50,0.696,1.004,0.678,1.264,0.884,0.400,0.705,0.672,��쐼,2.0,��
2019/12/30,06:00,0.699,1.005,0.678,1.263,0.882,0.402,0.706,0.674,�쐼,2.0,��
2019/12/30,06:10,0.698,1.007,0.677,1.264,0.884,0.400,0.706,0.672,��쐼,1.9,��
2019/12/30,06:20,0.697,1.005,0.676,1.265,0.885,0.402,0.706,0.672,��쐼,2.1,��
2019/12/30,06:30,0.697,1.007,0.678,1.264,0.883,0.401,0.705,0.673,��,2.4,��
2019/12/30,06:40,0.701,1.007,0.677,1.261,0.883,0.402,0.706,0.673,��,2.7,��
2019/12/30,06:50,0.701,1.007,0.676,1.264,0.883,0.401,0.707,0.673,��,2.3,��
2019/12/30,07:00,0.698,1.007,0.677,1.266,0.884,0.401,0.706,0.673,��쓌,1.8,��
2019/12/30,07:10,0.699,1.004,0.678,1.265,0.884,0.402,0.705,0.673,��쓌,2.5,��
2019/12/30,07:20,0.697,1.007,0.678,1.264,0.885,0.402,0.706,0.673,��쓌,2.4,��
2019/12/30,07:30,0.701,1.003,0.679,1.261,0.885,0.400,0.705,0.671,��쓌,1.7,��
2019/12/30,07:40,0.701,1.007,0.677,1.265,0.883,0.401,0.706,0.672,�쓌,1.1,��
2019/12/30,07:50,0.698,1.007,0.678,1.265,0.886,0.402,0.707,0.671,�쓌,1.1,��
2019/12/30,08:00,0.697,1.008,0.678,1.263,0.885,0.403,0.706,0.671,��쓌,1.0,��
2019/12/30,08:10,0.699,1.008,0.677,1.265,0.885,0.401,0.707,0.673,��쓌,1.6,��
2019/12/30,08:20,0.699,1.008,0.678,1.267,0.883,0.402,0.708,0.672,��쓌,1.9,��
2019/12/30,08:30,0.700,1.007,0.678,1.266,0.884,0.401,0.706,0.673,��,2.8,��
2019/12/30,08:40,0.700,1.008,0.680,1.265,0.883,0.402,0.707,0.673,��,2.1,�L
2019/12/30,08:50,0.700,1.010,0.680,1.267,0.886,0.402,0.707,0.674,��쓌,1.8,�L
2019/12/30,09:00,0.701,1.007,0.678,1.267,0.885,0.403,0.709,0.672,��,0.8,��
2019/12/30,09:10,0.700,1.008,0.678,1.267,0.886,0.401,0.707,0.674,��,1.0,�L
2019/12/30,09:20,0.700,1.008,0.680,1.264,0.885,0.403,0.706,0.674,��쓌,1.2,�L
2019/12/30,09:30,0.701,1.010,0.681,1.265,0.885,0.403,0.708,0.672,��쓌,0.7,�L
2019/12/30,09:40,0.701,1.006,0.680,1.267,0.887,0.403,0.708,0.674,�쓌,0.6,�L
2019/12/30,09:50,0.703,1.008,0.680,1.270,0.886,0.402,0.708,0.673,��,0.5,�L
2019/12/30,10:00,0.701,1.009,0.682,1.266,0.886,0.405,0.708,0.672,�k��,0.6,�L
2019/12/30,10:10,0.701,1.010,0.680,1.266,0.885,0.405,0.708,0.673,�k��,1.3,�L
2019/12/30,10:20,0.701,1.008,0.681,1.266,0.886,0.404,0.706,0.672,�k��,1.2,�L
2019/12/30,10:30,0.702,1.008,0.681,1.268,0.885,0.405,0.706,0.673,�k�k��,1.1,�L
2019/12/30,10:40,0.699,1.009,0.680,1.267,0.884,0.404,0.707,0.674,�k�k��,1.4,�L
2019/12/30,10:50,0.701,1.004,0.680,1.265,0.883,0.405,0.708,0.673,�k�k��,1.2,�L
2019/12/30,11:00,0.699,1.003,0.680,1.264,0.883,0.405,0.708,0.671,�k,0.7,�L
2019/12/30,11:10,0.699,0.998,0.679,1.265,0.879,0.405,0.706,0.672,�k,0.9,�L
2019/12/30,11:20,0.701,0.999,0.680,1.261,0.882,0.405,0.704,0.670,�k,1.1,�L
2019/12/30,11:30,0.697,1.001,0.677,1.261,0.880,0.406,0.708,0.671,�k�k��,1.4,�L
2019/12/30,11:40,0.698,0.996,0.677,1.263,0.878,0.404,0.707,0.670,�k,1.3,�L
2019/12/30,11:50,0.697,0.999,0.676,1.263,0.877,0.404,0.706,0.673,�k�k��,1.3,�L
2019/12/30,12:00,0.697,0.995,0.677,1.262,0.878,0.403,0.705,0.670,�k�k��,1.4,�L
2019/12/30,12:10,0.697,0.997,0.676,1.261,0.878,0.404,0.706,0.669,�k��,1.4,�L
2019/12/30,12:20,0.697,0.995,0.677,1.259,0.877,0.404,0.705,0.669,���k��,1.7,�L
2019/12/30,12:30,0.697,0.995,0.676,1.262,0.878,0.403,0.705,0.672,���쐼,1.5,�L
2019/12/30,12:40,0.697,0.994,0.677,1.260,0.876,0.404,0.705,0.670,��쐼,1.1,�L
2019/12/30,12:50,0.696,0.993,0.675,1.258,0.876,0.404,0.705,0.669,-,CALM,�L
2019/12/30,13:00,0.696,0.992,0.675,1.259,0.875,0.403,0.705,0.670,-,CALM,�L
2019/12/30,13:10,0.695,0.994,0.674,1.256,0.875,0.402,0.704,0.670,�k�k��,0.6,�L
2019/12/30,13:20,0.696,0.993,0.674,1.257,0.874,0.402,0.705,0.670,�k,0.7,�L
2019/12/30,13:30,0.694,0.994,0.674,1.256,0.875,0.400,0.704,0.669,�k�k��,0.8,�L
2019/12/30,13:40,0.695,0.992,0.671,1.259,0.873,0.403,0.705,0.670,�k,1.4,�L
2019/12/30,13:50,0.694,0.993,0.672,1.255,0.874,0.402,0.705,0.670,�k,1.4,�L
2019/12/30,14:00,0.694,0.992,0.672,1.259,0.875,0.402,0.705,0.668,�k,1.1,�L
2019/12/30,14:10,0.693,0.993,0.673,1.256,0.874,0.402,0.704,0.670,�k�k��,1.2,�L
2019/12/30,14:20,0.694,0.992,0.674,1.256,0.873,0.403,0.704,0.670,�k�k��,1.5,�L
2019/12/30,14:30,0.695,0.993,0.673,1.257,0.874,0.402,0.704,0.670,�k�k��,1.6,�L
2019/12/30,14:40,0.693,0.992,0.670,1.256,0.873,0.404,0.704,0.669,�k�k��,1.5,�L
2019/12/30,14:50,0.692,0.991,0.668,1.255,0.872,0.402,0.705,0.669,�k�k��,1.6,�L
2019/12/30,15:00,0.692,0.989,0.674,1.256,0.871,0.402,0.704,0.668,�k,1.2,�L
2019/12/30,15:10,0.693,0.990,0.672,1.254,0.873,0.403,0.703,0.670,�k�k��,1.5,�L
2019/12/30,15:20,0.693,0.992,0.671,1.255,0.874,0.402,0.706,0.670,��,0.8,�L
2019/12/30,15:30,0.694,0.990,0.673,1.256,0.872,0.402,0.703,0.670,�k,0.5,�L
2019/12/30,15:40,0.693,0.990,0.670,1.256,0.873,0.402,0.704,0.670,�k,1.3,�L
2019/12/30,15:50,0.694,0.989,0.672,1.254,0.873,0.402,0.703,0.670,�k,1.1,�L
2019/12/30,16:00,0.694,0.990,0.671,1.255,0.873,0.402,0.705,0.670,�k��,1.7,�L
2019/12/30,16:10,0.693,0.990,0.671,1.254,0.871,0.402,0.703,0.670,�k�k��,1.2,�L
2019/12/30,16:20,0.692,0.990,0.671,1.253,0.872,0.403,0.704,0.668,�k��,2.0,�L
2019/12/30,16:30,0.692,0.989,0.673,1.254,0.873,0.402,0.705,0.669,�k�k��,2.2,�L
2019/12/30,16:40,0.693,0.988,0.670,1.252,0.871,0.402,0.705,0.670,�k,2.0,�L
2019/12/30,16:50,0.692,0.988,0.671,1.252,0.869,0.402,0.704,0.668,�k�k��,2.4,�L
2019/12/30,17:00,0.693,0.988,0.671,1.251,0.870,0.401,0.704,0.669,�k�k��,1.4,�L
2019/12/30,17:10,0.692,0.989,0.671,1.254,0.870,0.401,0.705,0.670,�k�k��,2.3,�L
2019/12/30,17:20,0.693,0.990,0.671,1.251,0.870,0.401,0.703,0.669,�k�k��,3.4,�L
2019/12/30,17:30,0.692,0.989,0.672,1.254,0.869,0.401,0.704,0.669,�k�k��,1.6,�L
2019/12/30,17:40,0.691,0.988,0.670,1.253,0.870,0.401,0.704,0.669,�k�k��,3.1,��
2019/12/30,17:50,0.690,0.987,0.669,1.252,0.871,0.402,0.703,0.668,�k�k��,2.8,�L
2019/12/30,18:00,0.691,0.986,0.670,1.251,0.870,0.401,0.703,0.669,�k�k��,2.6,��
2019/12/30,18:10,0.691,0.987,0.670,1.253,0.870,0.401,0.703,0.670,�k�k��,2.6,��
2019/12/30,18:20,0.691,0.989,0.668,1.253,0.871,0.400,0.703,0.668,�k�k��,1.9,��
2019/12/30,18:30,0.691,0.989,0.672,1.249,0.872,0.400,0.705,0.668,�k��,3.5,��
2019/12/30,18:40,0.691,0.987,0.669,1.253,0.870,0.400,0.704,0.670,�k��,3.1,��
2019/12/30,18:50,0.691,0.985,0.668,1.252,0.872,0.401,0.705,0.669,�k�k��,2.0,��
2019/12/30,19:00,0.691,0.986,0.670,1.252,0.871,0.400,0.702,0.668,�k�k��,1.3,��
2019/12/30,19:10,0.692,0.988,0.669,1.251,0.870,0.401,0.705,0.668,�k��,0.7,��
2019/12/30,19:20,0.690,0.987,0.668,1.251,0.871,0.401,0.705,0.669,�k,1.9,��
2019/12/30,19:30,0.691,0.987,0.671,1.252,0.872,0.401,0.704,0.670,�k��,0.9,��
2019/12/30,19:40,0.689,0.988,0.670,1.252,0.871,0.401,0.701,0.670,�k�k��,0.6,��
2019/12/30,19:50,0.692,0.986,0.670,1.251,0.871,0.400,0.703,0.669,�k��,0.7,��
2019/12/30,20:00,0.690,0.988,0.670,1.254,0.870,0.400,0.703,0.668,-,CALM,��
2019/12/30,20:10,0.692,0.988,0.668,1.252,0.873,0.401,0.704,0.669,-,CALM,��
2019/12/30,20:20,0.691,0.989,0.670,1.249,0.869,0.400,0.702,0.669,���k��,0.7,��
2019/12/30,20:30,0.691,0.989,0.672,1.254,0.871,0.400,0.702,0.670,�쓌,1.5,��
2019/12/30,20:40,0.691,0.989,0.671,1.254,0.871,0.401,0.702,0.668,�쓌,1.0,��
2019/12/30,20:50,0.691,0.989,0.668,1.255,0.872,0.403,0.704,0.669,��,0.5,��
2019/12/30,21:00,0.694,0.990,0.672,1.252,0.872,0.402,0.704,0.668,�쓌,2.1,��
2019/12/30,21:10,0.693,0.990,0.671,1.254,0.873,0.403,0.704,0.670,��쓌,1.4,��
2019/12/30,21:20,0.693,0.989,0.670,1.254,0.874,0.401,0.702,0.668,��쐼,1.3,��
2019/12/30,21:30,0.693,0.992,0.670,1.254,0.874,0.401,0.704,0.669,��쐼,1.9,��
2019/12/30,21:40,0.693,0.988,0.671,1.253,0.872,0.401,0.704,0.669,��,2.3,��
2019/12/30,21:50,0.695,0.989,0.670,1.251,0.872,0.402,0.704,0.669,��,3.8,��
2019/12/30,22:00,0.694,0.989,0.672,1.254,0.872,0.402,0.704,0.670,��,4.5,��
2019/12/30,22:10,0.694,0.991,0.671,1.254,0.874,0.402,0.704,0.670,��,4.2,��
2019/12/30,22:20,0.693,0.989,0.669,1.251,0.873,0.401,0.704,0.670,��,3.8,��
2019/12/30,22:30,0.693,0.989,0.671,1.251,0.872,0.402,0.704,0.670,��,3.8,��
2019/12/30,22:40,0.692,0.989,0.668,1.252,0.873,0.401,0.703,0.670,�쐼,2.7,��
2019/12/30,22:50,0.694,0.989,0.670,1.253,0.874,0.400,0.705,0.669,�쐼,1.8,��
2019/12/30,23:00,0.693,0.989,0.671,1.252,0.873,0.402,0.703,0.669,��쐼,2.4,��
2019/12/30,23:10,0.693,0.989,0.671,1.254,0.874,0.401,0.705,0.668,��,4.3,��
2019/12/30,23:20,0.692,0.989,0.671,1.252,0.872,0.402,0.705,0.668,��,4.4,��
2019/12/30,23:30,0.694,0.988,0.670,1.251,0.874,0.401,0.707,0.666,��,4.0,��
2019/12/30,23:40,0.693,0.989,0.671,1.254,0.872,0.403,0.704,0.668,��쓌,3.6,��
2019/12/30,23:50,0.693,0.988,0.671,1.254,0.871,0.401,0.705,0.668,��쓌,3.8,��
